Location: Unspecified
(42.3650°N, 71.1030°W)
Time: 14:35:41
(UTC+00:00)

FENGYUN 1C DEB - Visible Passes

Search period start: 04 October 2024 00:00
Search period end: 14 October 2024 00:00
Orbit: 537 x 936 km, 99.0° (Epoch: 30 September)

Date Brightness Start Highest point End Pass type
(mag) Time Alt. Az. Time Alt. Az. Time Alt. Az.
04 Oct ? 08:19:47 10° ENE 08:21:03 11° E 08:22:18 10° ESE visible
04 Oct ? 09:54:32 10° NNE 09:59:53 80° ESE 10:05:41 10° SSW visible
05 Oct ? 09:09:41 10° NE 09:14:33 33° E 09:19:43 10° SSE visible
06 Oct ? 08:26:23 10° ENE 08:28:55 13° E 08:31:31 10° ESE visible
06 Oct ? 10:02:15 10° NNE 10:07:41 89° WNW 10:13:33 10° SSW visible
07 Oct ? 09:17:13 10° NNE 09:22:20 38° E 09:27:45 10° SSE visible
08 Oct ? 08:33:24 10° NE 08:36:42 16° E 08:40:05 10° SE visible
08 Oct ? 10:09:53 10° NNE 10:15:23 79° WNW 10:21:17 10° SSW visible
09 Oct ? 09:24:42 10° NNE 09:30:02 44° E 09:35:39 10° S visible
10 Oct ? 08:40:31 10° NE 08:44:23 18° E 08:48:20 10° SE visible
10 Oct ? 10:17:26 10° N 10:23:00 69° WNW 10:28:52 10° SSW visible
11 Oct ? 09:32:07 10° NNE 09:37:37 51° E 09:43:24 10° S visible
12 Oct ? 08:47:40 10° NE 08:51:58 21° E 08:56:23 10° SE visible
12 Oct ? 10:24:56 10° N 10:30:30 61° WNW 10:36:21 10° SSW visible
13 Oct ? 09:39:28 10° NNE 09:45:08 58° ESE 09:51:00 10° S visible
